This is the latest recevied weather packets stored in our database for station/object KK7RJD. If no packets are shown the sender has not sent any weather packets the latest 10 day(s).
| Time | Temp. | Humidity | Pressure | Rain* | Wind** | Luminosity | Snow |
|---|---|---|---|---|---|---|---|
| 1777579133 | 13.89° C | 26% | 1020.9 hPa | 0 mm | - | 1008 W/m² | - |
| 1777578833 | 13.33° C | 28% | 1020.9 hPa | 0 mm | - | 1025 W/m² | - |
| 1777578529 | 14.44° C | 29% | 1020.9 hPa | 0 mm | - | 443 W/m² | - |
| 1777578223 | 13.89° C | 28% | 1021 hPa | 0 mm | - | 1107 W/m² | - |
| 1777577919 | 13.89° C | 25% | 1020.9 hPa | 0 mm | - | 1083 W/m² | - |
| 1777577615 | 13.89° C | 28% | 1021 hPa | 0 mm | - | 1030 W/m² | - |
| 1777577313 | 13.89° C | 28% | 1021.1 hPa | 0 mm | - | 1074 W/m² | - |
| 1777577008 | 13.33° C | 30% | 1021.2 hPa | 0 mm | - | 392 W/m² | - |
| 1777576706 | 12.22° C | 29% | 1021.4 hPa | 0 mm | - | 693 W/m² | - |
| 1777576404 | 12.22° C | 33% | 1021.5 hPa | 0 mm | - | 360 W/m² | - |
| 1777576101 | 12.78° C | 30% | 1021.2 hPa | 0 mm | - | 276 W/m² | - |
| 1777575797 | 13.89° C | 28% | 1021.4 hPa | 0 mm | - | 259 W/m² | - |
| 1777575494 | 13.33° C | 29% | 1021.1 hPa | 0 mm | - | 1066 W/m² | - |
| 1777575189 | 12.22° C | 29% | 1021.5 hPa | 0 mm | - | 834 W/m² | - |
| 1777574886 | 13.33° C | 27% | 1021.4 hPa | 0 mm | - | 239 W/m² | - |
| 1777574583 | 13.33° C | 28% | 1021.2 hPa | 0 mm | - | 1054 W/m² | - |
| 1777574279 | 11.67° C | 30% | 1021.6 hPa | 0 mm | - | 1004 W/m² | - |
| 1777573974 | 11.67° C | 30% | 1021.8 hPa | 0 mm | - | 250 W/m² | - |
| 1777573669 | 12.78° C | 27% | 1021.7 hPa | 0 mm | - | 238 W/m² | - |
| 1777573366 | 13.33° C | 30% | 1021.8 hPa | 0 mm | - | 1074 W/m² | - |
| 1777573061 | 13.33° C | 28% | 1021.9 hPa | 0 mm | - | 1047 W/m² | - |
| 1777572758 | 12.78° C | 27% | 1021.8 hPa | 0 mm | - | 894 W/m² | - |
| 1777572452 | 12.22° C | 28% | 1022 hPa | 0 mm | - | 926 W/m² | - |
| 1777572149 | 13.33° C | 29% | 1022 hPa | 0 mm | - | 427 W/m² | - |
| 1777571844 | 13.33° C | 28% | 1021.9 hPa | 0 mm | - | 1002 W/m² | - |
* Rain latest hour (hover to see other rain measurements)
** Current wind speed in m/s (hover to see current wind gust speed)